Flag for Canada Weather past 2 weeks in Toronto, Ontario, Canada

Now
68 °F

Partly sunny.


Feels Like: 68 °F
Forecast: 59 / 75 °F
Wind: 7 mph from South

Location: Toronto Pearson International Airport

Current Time: Aug 28, 2015 at 8:38:36 PM

Latest Report: Aug 28, 2015 at 8:00 PM


Visibility: 15 mi

Pressure: 30.14 "Hg

Humidity: 69%

Dew point: 57 °F

Location of TorontoLocation

Historic Weather in Toronto — Graph

°F

Toronto temperature yesterday

Maximum temperature yesterday: 66 °F (at 3:00 PM)
Minimum temperature yesterday: 55 °F (at 3:00 AM)
Average temperature yesterday: 62 °F

Past Weeks' High & Low Weather Summary

 TemperatureHumidityPressure
High90 °F (Aug 17, 3:00 PM)100% (Aug 19, 5:03 AM)30.22 "Hg (Aug 19, 5:03 AM)
Low54 °F (Aug 28, 5:00 AM)43% (Aug 17, 5:00 PM)29.71 "Hg (Aug 20, 6:00 AM)
Average70 °F72%29.99 "Hg
* Reported Aug 13 7:00 PM — Aug 28 7:00 PM, Toronto, Weather by CustomWeather, © 2015

Note: Actual official high and low records may vary slightly from our data, if they occured in-between our weather recording intervals... More about our weather records

Advertising

Toronto weather history for previous 24 hours

 ConditionsComfort  
Time TempWeatherWind HumidityBarometerVisibility
7:00 PM
Fri, Aug 28
70 °FPartly sunny.8 mph60%30.14 "Hg15 mi
6:00 PM72 °FPartly sunny.9 mph57%30.14 "Hg15 mi
5:00 PM73 °FPartly sunny.9 mph53%30.14 "Hg15 mi
4:00 PM72 °FScattered clouds.10 mph57%30.16 "Hg15 mi
3:00 PM72 °FScattered clouds.6 mph53%30.17 "Hg15 mi
2:00 PM72 °FScattered clouds.8 mph53%30.18 "Hg15 mi
1:00 PM70 °FBroken clouds.6 mph60%30.19 "Hg15 mi
12:00 PM68 °FBroken clouds.8 mph60%30.21 "Hg15 mi
11:00 AM66 °FScattered clouds.2 mph60%30.22 "Hg15 mi
10:00 AM63 °FPassing clouds.5 mph68%30.22 "Hg15 mi
9:00 AM61 °FPartly sunny.2 mph72%30.22 "Hg15 mi
8:00 AM57 °FPassing clouds.5 mph77%30.22 "Hg15 mi
7:00 AM54 °FPassing clouds.5 mph82%30.20 "Hg15 mi
6:00 AM54 °FPassing clouds.No wind88%30.18 "Hg15 mi
5:00 AM54 °FClear.3 mph88%30.17 "Hg15 mi
4:00 AM55 °FPassing clouds.3 mph88%30.16 "Hg15 mi
3:00 AM57 °FPassing clouds.5 mph82%30.16 "Hg15 mi
2:00 AM59 °FPassing clouds.5 mph77%30.17 "Hg15 mi
1:00 AM59 °FPassing clouds.6 mph77%30.18 "Hg15 mi
12:00 AM57 °FPassing clouds.3 mph82%30.17 "Hg15 mi
11:00 PM
Thu, Aug 27
61 °FPassing clouds.5 mph72%30.17 "Hg15 mi
10:00 PM63 °FPassing clouds.2 mph68%30.16 "Hg15 mi
9:00 PM64 °FPartly sunny.5 mph68%30.16 "Hg15 mi
8:00 PM64 °FPartly sunny.8 mph64%30.15 "Hg15 mi
Weather by CustomWeather, © 2015

See weather overviewHow to use our weather pages